This is the latest recevied weather packets stored in our database for station/object KC5EZZ-2. If no packets are shown the sender has not sent any weather packets the latest 10 day(s).
| Time | Temp. | Humidity | Pressure | Rain* | Wind** | Luminosity | Snow |
|---|---|---|---|---|---|---|---|
| 1777646752 | 12.78° C | - | - | 0 mm | 5.36 m/s, 14° | - | - |
| 1777646632 | 12.78° C | - | - | 0 mm | 5.36 m/s, 14° | - | - |
| 1777646332 | 12.78° C | - | - | 0 mm | 5.81 m/s, 11° | - | - |
| 1777646030 | 12.78° C | - | - | 0 mm | 5.36 m/s, 15° | - | - |
| 1777645730 | 12.78° C | - | - | 0 mm | 4.47 m/s, 14° | - | - |
| 1777645431 | 12.78° C | - | - | 0 mm | 4.02 m/s, 32° | - | - |
| 1777645128 | 12.78° C | - | - | 0 mm | 5.81 m/s, 14° | - | - |
| 1777644829 | 12.78° C | - | - | 0 mm | 5.36 m/s, 20° | - | - |
| 1777644529 | 12.78° C | - | - | 0 mm | 4.02 m/s, 1° | - | - |
| 1777644227 | 12.22° C | - | - | 0 mm | 4.92 m/s, 13° | - | - |
| 1777643927 | 12.78° C | - | - | 0 mm | 4.02 m/s, 6° | - | - |
| 1777643628 | 12.78° C | - | - | 0 mm | 4.47 m/s, 20° | - | - |
| 1777643325 | 12.78° C | - | - | 0 mm | 4.92 m/s, 41° | - | - |
| 1777643026 | 12.78° C | - | - | 0 mm | 4.47 m/s, 25° | - | - |
| 1777642726 | 12.78° C | - | - | 0 mm | 6.26 m/s, 31° | - | - |
| 1777642424 | 12.78° C | - | - | 0 mm | 5.36 m/s, 27° | - | - |
| 1777642124 | 12.78° C | - | - | 0 mm | 4.92 m/s, 17° | - | - |
| 1777641522 | 12.78° C | - | - | 0 mm | 4.47 m/s, 6° | - | - |
| 1777641223 | 12.78° C | - | - | 0 mm | 4.92 m/s, 37° | - | - |
| 1777640923 | 13.33° C | - | - | 0 mm | 4.47 m/s, 21° | - | - |
| 1777640621 | 13.33° C | - | - | 0 mm | 4.47 m/s, 359° | - | - |
| 1777640321 | 13.33° C | - | - | 0 mm | 4.47 m/s, 42° | - | - |
| 1777640022 | 13.33° C | - | - | 0.51 mm | 4.02 m/s, 34° | - | - |
| 1777639720 | 13.33° C | - | - | 0.51 mm | 4.47 m/s, 354° | - | - |
| 1777639420 | 13.33° C | - | - | 0.51 mm | 6.71 m/s, 0° | - | - |
* Rain latest hour (hover to see other rain measurements)
** Current wind speed in m/s (hover to see current wind gust speed)